Location: Schommer Observatory
(40.5200°N, 74.4500°W)
Time: 20:51:50
(UTC-05:00)

Vanguard 2 Rocket - Visible Passes

Search period start: 19 February 2018 00:00
Search period end: 01 March 2018 00:00
Orbit: 555 x 3327 km, 32.9° (Epoch: 19 February)

Date Brightness Start Highest point End Pass type
(mag) Time Alt. Az. Time Alt. Az. Time Alt. Az.
19 Feb 10.1 01:18:55 40° ESE 01:18:55 40° ESE 01:29:31 10° E visible
19 Feb 9.5 03:24:43 57° SW 03:27:21 60° SSW 03:45:48 10° SE visible
19 Feb 10.0 05:30:32 17° W 05:43:50 35° SW 05:58:10 10° SSE visible
20 Feb 10.6 00:22:45 21° E 00:22:45 21° E 00:27:34 10° E visible
20 Feb 9.6 02:28:33 60° SSE 02:28:33 60° SSE 02:45:04 10° ESE visible
20 Feb 9.8 04:34:21 33° WSW 04:42:45 45° SSW 04:59:10 10° SSE visible
20 Feb 9.7 20:44:03 10° SSW 20:45:27 15° S 20:45:27 15° S visible
21 Feb 10.0 01:32:27 42° ESE 01:32:27 42° ESE 01:43:42 10° ESE visible
21 Feb 9.5 03:38:15 50° SW 03:41:15 53° SSW 03:59:23 10° SE visible
21 Feb 10.3 05:44:04 13° W 05:57:07 27° SW 06:10:13 10° S visible
21 Feb 9.5 19:47:17 10° SSE 19:49:43 15° SSE 19:49:43 15° SSE visible
21 Feb 10.1 21:55:32 10° SW 21:55:34 10° SW 21:55:34 10° SW visible
22 Feb 10.6 00:36:24 23° ESE 00:36:24 23° ESE 00:41:49 10° E visible
22 Feb 9.6 02:42:13 56° S 02:42:13 56° S 02:58:53 10° SE visible
22 Feb 10.0 04:48:02 27° WSW 04:56:15 35° SW 05:11:51 10° SSE visible
22 Feb 9.5 20:57:13 10° SSW 20:59:49 21° SSW 20:59:49 21° SSW visible
23 Feb 10.0 01:46:15 41° SE 01:46:15 41° SE 01:57:43 10° ESE visible
23 Feb 9.7 03:52:04 42° SW 03:55:00 44° SSW 04:12:31 10° SSE visible
23 Feb 10.5 05:59:03 10° W 06:10:20 18° SW 06:20:49 10° SSW visible
23 Feb 9.1 19:59:35 10° S 20:04:04 23° SSE 20:04:04 23° SSE visible
23 Feb 10.0 22:09:29 10° SW 22:09:55 12° SW 22:09:55 12° SW visible
24 Feb 10.5 00:50:20 23° ESE 00:50:20 23° ESE 00:55:57 10° ESE visible
24 Feb 9.7 02:56:10 49° S 02:56:10 49° S 03:12:21 10° SE visible
24 Feb 10.2 05:02:00 21° WSW 05:09:39 26° SW 05:23:40 10° S visible
24 Feb 9.3 19:03:15 10° SSE 19:07:28 15° SE 19:08:18 14° SE visible
24 Feb 9.2 21:10:54 10° SW 21:14:09 26° SSW 21:14:09 26° SSW visible
25 Feb 10.0 02:00:20 39° SE 02:00:20 39° SE 02:11:26 10° SE visible
25 Feb 9.9 04:06:10 34° SW 04:08:36 34° SW 04:24:59 10° SSE visible
25 Feb 10.7 06:21:13 10° WSW 06:23:34 10° SW 06:25:55 10° SW visible
25 Feb 8.8 20:12:47 10° SSW 20:18:21 32° SSE 20:18:21 32° SSE visible
25 Feb 10.0 22:23:41 10° WSW 22:24:11 12° WSW 22:24:11 12° WSW visible
26 Feb 10.6 01:04:32 23° ESE 01:04:32 23° ESE 01:09:54 10° ESE visible
26 Feb 9.9 03:10:23 40° SSW 03:10:23 40° SSW 03:25:17 10° SSE visible
26 Feb 10.4 05:16:14 15° WSW 05:23:02 18° SW 05:33:56 10° SSW visible
26 Feb 8.9 19:15:22 10° S 19:20:51 22° SE 19:22:31 21° SE visible
26 Feb 9.1 21:24:54 10° SW 21:28:21 29° SW 21:28:21 29° SW visible
27 Feb 10.1 02:14:39 34° SSE 02:14:39 34° SSE 02:24:46 10° SE visible
27 Feb 10.1 04:20:30 25° SW 04:22:10 25° SW 04:36:31 10° S visible
27 Feb 9.2 18:19:46 10° SSE 18:22:03 12° SE 18:24:40 10° ESE visible
27 Feb 8.5 20:26:31 10° SW 20:32:28 40° S 20:32:28 40° S visible
27 Feb 10.1 22:38:02 10° WSW 22:38:19 11° WSW 22:38:19 11° WSW visible
28 Feb 10.6 01:18:56 20° SE 01:18:56 20° SE 01:23:31 10° SE visible
28 Feb 10.1 03:24:47 31° SSW 03:24:47 31° SSW 03:37:32 10° SSE visible
28 Feb 8.5 19:28:33 10° SSW 19:34:29 30° SE 19:36:34 28° SE visible
28 Feb 9.1 21:39:08 10° WSW 21:42:24 29° SW 21:42:24 29° SW visible
